COSMOS 2251 DEB, 33892

Orbit data source: Space-Track

COSMOS 2251 DEB, 33892 is space debris in LEO originally from a launch on Wed, 16 Jun 1993 UTC launched from the Plesetsk Missile And Space Complex (PKMTR). The debris from Iridium 33, an American commercial communications satellite, has been tracked extensively since its accidental collision with the defunct Russian satellite Cosmos 2251 in 2009. This event, occurring at high speed in low Earth orbit (LEO), generated thousands of pieces of space debris, significantly increasing the risk of further collisions. The Iridium 33 debris cloud has impacted space traffic management and orbital debris mitigation strategies, making it a subject of ongoing study in space situational awareness.

Loading next visibility...
Identifier
33892, 1993-036CV
Orbit
LEO
Country
Flag of CISCIS
Related business
Manufacturer
Unknown
Mission
Spacecraft
Bus & Motor
Unknown
Mass
Unknown
Launch date (UTC)
1993-06-16 (33 years ago)
Launch vehicle
Unknown
Launch site
Plesetsk Missile And Space Complex (PKMTR)
Object type
Payload
Rocket body
Debris
Shape & HBR
Unknown shape, 0.1 m
Radar Cross Section
Medium (>0.1 m² and <1 m²)

Expand to show TLE details & history
Last TLE update: 1 day ago

TLE from 1 day ago
0 COSMOS 2251 DEB
1 33892U 93036CV  26237.37604414  .00000685  00000-0  28990-3 0  9995
2 33892  73.8039 355.3712 0114432 340.9095  81.4055 14.24041547905939
Epoch: 2026-08-25T09:01Z
TLE epoch observation values (Epoch: 2026-08-25T09:01:30.213Z)
Latitude
59.45286°
Longitude
-84.33773°
Altitude
810.062 km
Speed
7.46 km/s
True Right ascension
01h 38m 43s
True Declination
59° 18' 11"
Sunlit
Object was in daylight at epoch
Visualization orbit readout
Latitude
Unknown
Longitude
Unknown
Altitude
Unknown
Speed
Unknown
Apparent Right ascension
Unknown
Apparent Declination
Unknown
Sunlit
N/A
Visualization observer readout
Local Sidereal Time
02:58:10
Azimuth
Unknown
Elevation
Unknown
Doppler factor
Unknown
Orbital elements
Apogee altitude
891.622 km
Perigee altitude
727.125 km
Semi-major axis
7,187.511 km
Eccentricity
0.01144
Inclination
73.8039°
RAAN
355.3712°
Arg. of periapsis
340.9095°
True anomaly
82.70474°
Mean anomaly
81.4055°
Eccentric anomaly
82.05485°
Mean motion
3.56185 °/min
Orbital period
101.07 mins
BSTAR
0.0002899
Loading maneuver chart data...
Computing Atmospheric mass density...

Documentation

Showing up to 5 results
|